Regional Weather Roundup
Issued by NWS State College, PA

Home | Current Version | Previous Version | Graphics & Text | Print | Product List | Glossary Off
Versions: 1 2 3 4 5 6 7 8 9 10 11 12 13 14 15 16 17 18 19 20 21 22 23 24 25 26 27 28 29 30 31 32 33 34 35 36 37 38 39 40 41 42 43 44 45 46 47 48 49 50

966
ASUS41 KCTP 260710
RWRCTP

REGIONAL WEATHER ROUNDUP
NATIONAL WEATHER SERVICE STATE COLLEGE PA
200 AM EST SUN FEB 26 2017

Note: "fair" indicates few or no clouds below 12,000 feet with no
significant weather and/or obstructions to visibility.

* = STATION THAT DOES NOT REPORT PRECIPITATION /E.G. RAIN...SNOW...ETC/
    THUNDER OR FOG.

PAZ002>004-007>009-013>016-020>023-029>032-260800-
WESTERN PENNSYLVANIA

CITY           SKY/WX    TMP DP  RH WIND       PRES   REMARKS
ERIE           CLOUDY    28  19  69 W15G24    29.94S
MEADVILLE      LGT SNOW  24  18  77 W16       29.92R WCI  11
FRANKLIN*      CLOUDY    25  14  63 W12       29.93R WCI  14
NEW CASTLE     FLURRIES  26  16  65 W10       29.99R
BEAVER COUNTY  NOT AVBL
BUTLER*        CLOUDY    27  14  59 W9G18     29.98R
PITTSBURGH INT FLURRIES  27  15  61 W12G22    29.98S
PITTSBURGH     FLURRIES  27  15  61 W16       29.97R WCI  15
INDIANA*       CLOUDY    27  19  74 NW14G20   29.96S
LATROBE        LGT RAIN  28  18  64 W12G21    29.98R
WASHINGTON CO* CLOUDY    27  16  63 W6        30.02S
$$

PAZ004>006-010>012-017>019-024>028-033>037-041-042-045-046-049>053-260800-
CENTRAL PENNSYLVANIA

CITY           SKY/WX    TMP DP  RH WIND       PRES   REMARKS
BRADFORD       FLURRIES  23  16  74 W17G26    29.81R WCI   9
DUBOIS         CLOUDY    25  12  58 W15G33    29.87R WCI  13
CLEARFIELD       N/A    N/A N/A N/A MISG      29.88R
JOHNSTOWN      FLURRIES  24  18  77 W17G24    29.86R WCI  11
ALTOONA        CLOUDY    29  17  61 NW16G29   29.90R
STATE COLLEGE  CLOUDY    30  19  64 W10G23    29.88R
WILLIAMSPORT   CLOUDY    35  22  58 W9        29.85R
SELINSGROVE    CLOUDY    35  20  54 W8G17     29.88R
FT INDIANTOWN  CLOUDY    36  20  51 W15G23    29.86R
CAPITAL CITY   CLOUDY    38  16  40 NW22G32   29.89R
HARRISBURG     MOCLDY    36  20  52 NW24      29.88R
YORK           CLOUDY    35  22  58 NW10G18   29.88R
$$

PAZ038>040-043-044-047-048-054-055-060>062-067>071-260800-
EASTERN PENNSYLVANIA

CITY           SKY/WX    TMP DP  RH WIND       PRES   REMARKS
SCRANTON       CLOUDY    34  26  72 NW20      29.77R
MOUNT POCONO   CLOUDY    30  26  85 W13G23    29.70R
ALLENTOWN      CLOUDY    40  24  53 W14G25    29.79R
QUAKERTOWN*    MOSUNNY   37  23  56 W8G22     29.80R
READING        CLOUDY    38  24  57 W15G24    29.84R
LANCASTER      MOCLDY    37  22  54 W20G29    29.86R
COATESVILLE    MOSUNNY   36  21  55 NW18G25   29.84R
POTTSTOWN      PTCLDY    36  22  56 W10G21    29.84R
BLUE BELL      CLEAR     37  25  60 W8G24     29.80R
DOYLESTOWN     CLEAR     38  26  62 NW10G22   29.78R
WILLOW GROVE   NOT AVBL
NORTH PHILA    CLEAR     41  26  55 W10       29.82R
PHILADELPHIA   PTCLDY    44  25  47 NW20G29   29.83R
$$




USA.gov is the U.S. government's official web portal to all federal, state and local government web resources and services.